Location: Carezza
(46.4000°N, 11.5833°E)
Time: 20:40:53
(UTC+00:00)

Daily predictions for brighter satellites

Satellite Brightness Start Highest point End
(mag) Time Altitude Azimuth Time Altitude Azimuth Time Altitude Azimuth
Meteor 1-18 Rocket 4.4 17:28:43 10° N 17:34:42 83° ENE 17:40:35 10° SSE
Nadezhda 3 Rocket 4.1 17:28:53 10° N 17:35:17 77° E 17:41:39 10° SSE
Okean 1 3.6 17:34:42 10° NNW 17:38:45 78° W 17:42:47 10° S
FALCON 9 DEB 4.1 17:36:31 10° NW 17:39:23 30° NNE 17:42:14 10° E
Cosmos 2074 Rocket 4.5 17:33:24 10° SSW 17:39:39 70° W 17:45:54 10° N
GP-B 3.8 17:36:02 10° SE 17:40:01 33° E 17:44:00 10° NNE
Cosmos 2360 Rocket 2.2 17:35:59 10° SSW 17:41:37 76° ESE 17:47:18 10° NNE
BREEZE-M DEB (TANK) 2.3 17:40:37 10° WNW 17:42:47 46° N 17:46:37 10° ENE
Cosmos 1500 3.1 17:39:34 10° S 17:43:15 63° E 17:46:58 10° NNE
H-2A R/B 2.2 17:38:02 10° SSE 17:43:28 74° ENE 17:48:54 10° N
Cosmos 2154 Rocket 4.0 17:38:57 10° S 17:45:10 87° E 17:51:24 10° N
Cosmos 2333 4.5 17:40:18 10° S 17:45:39 46° ESE 17:51:05 10° NE
Cosmos 1844 3.7 17:40:40 10° NNW 17:46:28 75° ENE 17:52:10 10° SSE
FALCON 9 DEB 4.1 17:44:25 10° NW 17:47:18 30° NNE 17:50:06 11° ENE
SL-08 RB Rocket 4.2 17:43:16 10° SE 17:47:27 38° ENE 17:51:42 10° N
Cosmos 1354 Rocket 4.1 17:42:15 10° NNW 17:47:32 88° WSW 17:52:46 10° SSE
Cosmos 1777 Rocket 4.3 17:42:56 10° NNW 17:48:00 45° ENE 17:52:58 10° SE
Cosmos 1689 Rocket 2.5 17:45:35 10° NNE 17:48:17 35° E 17:50:59 10° SSE
Cosmos 1536 4.2 17:46:02 10° SE 17:48:44 18° E 17:51:26 10° NE
Cosmos 2237 Rocket 3.9 17:47:49 10° ESE 17:48:47 10° E 17:49:45 10° E
Cosmos 2278 Rocket 3.4 17:44:55 10° N 17:49:25 23° NE 17:53:46 10° E
SL-4 R/B 1.6 17:46:37 10° WNW 17:50:11 70° NNE 17:53:28 11° ESE
Cosmos 1869 Rocket 4.4 17:47:08 10° SSE 17:50:51 28° E 17:54:38 10° NNE
Meteor 1-5 Rocket 4.3 17:46:33 10° S 17:51:45 52° E 17:57:10 10° NNE
Abrixas rocket 1.6 17:50:31 10° WNW 17:52:59 63° NNE 17:54:57 14° E
Cosmos 1503 Rocket 4.4 17:50:04 10° NNW 17:55:13 66° WSW 18:00:19 10° S
Gbstr 26 Del rocket 3.9 17:51:10 10° WNW 17:55:25 45° N 18:00:16 11° ENE
Lacrosse 4 Rocket 2.0 17:52:05 10° S 17:56:11 40° ESE 18:00:23 10° NE
Helios 1A Rocket 3.1 17:52:26 10° SE 17:56:20 50° ENE 18:00:15 10° N
Ariane Rocket 4.3 17:52:57 10° ESE 17:56:39 21° ENE 18:00:20 10° NNE
CREW DRAGON DEMO-1 DEB 4.0 18:00:27 10° SSW 18:02:47 24° SE 18:04:03 17° ESE
SAR-Lupe-4 3.6 18:00:26 10° NNE 18:03:58 56° E 18:07:30 10° S
Cosmos 2333 Rocket 2.3 18:00:05 10° S 18:05:34 53° ESE 18:11:08 10° NE
SL-8 Rocket 4.1 18:02:31 10° SSE 18:08:33 55° E 18:14:34 10° NNE
CZ-4 R/B 2.1 18:05:05 10° S 18:08:53 56° W 18:12:48 10° NNW
Meteor 2-4 Rocket 4.0 18:04:01 10° NNW 18:09:55 83° W 18:15:52 10° S
Cosmos 962 Rocket 4.5 18:05:44 10° S 18:11:57 84° E 18:18:18 10° N
OBJECT-B 2.3 18:13:12 18° ENE 18:13:20 18° ENE 18:15:37 10° NNE
Cosmos 2322 Rocket 3.7 18:09:28 10° WSW 18:14:41 39° NW 18:19:57 10° NNE
ATLAS 5 CENTAUR R/B 4.4 18:05:21 10° W 18:15:01 30° NW 18:18:34 10° NNE
DMSP B5D1-3 4.5 18:11:08 10° NNE 18:16:19 84° ESE 18:21:29 10° SSW
USA 305 3.9 18:14:32 10° NW 18:18:29 34° NNE 18:21:04 18° ENE
Cosmos 1339 Rocket 4.4 18:14:49 10° N 18:21:05 76° E 18:27:23 10° SSE
ARGOS 3.4 18:16:51 10° S 18:22:17 76° WSW 18:27:45 10° NNW
SAR-Lupe-1 4.2 18:20:36 10° N 18:24:12 78° WNW 18:27:46 10° SSW
Okean-O 3.5 18:20:17 10° S 18:24:36 51° W 18:28:57 10° NNW
Cosmos 2366 rocket 4.0 18:19:55 10° S 18:26:07 61° E 18:32:23 10° NNE
Cosmos 2219 Rocket 2.1 18:20:38 10° SSW 18:26:09 67° ESE 18:31:44 10° NNE
Cosmos 1703 Rocket 3.9 18:22:01 10° NNW 18:26:23 68° W 18:30:41 10° S
SeaSat 1 2.5 18:24:08 10° NE 18:29:01 55° ESE 18:33:50 10° SSW
USA 307 3.8 18:27:49 10° NW 18:31:48 36° NNE 18:33:47 23° ENE
DELTA 2 R/B (1) 4.4 18:27:29 10° SW 18:32:27 34° SSE 18:35:02 23° ESE
USA 306 3.8 18:29:29 10° NW 18:33:31 37° NNE 18:35:25 24° ENE
ATLAS CENTAUR R/B 3.3 18:30:47 10° W 18:33:50 24° NW 18:36:57 10° NNE
USA 186 1.6 18:34:29 41° NE 18:34:29 41° NE 18:36:35 10° N
CZ-2C R/B 2.6 18:28:38 10° NNE 18:34:07 87° ESE 18:39:27 10° SSW
USA 234 3.8 18:29:57 16° ENE 18:34:28 36° SE 18:40:23 10° SSW
ERS-2 2.9 18:32:44 10° N 18:36:20 53° WNW 18:39:52 10° SSW
COSMOS 2428 2.6 18:30:55 10° SSW 18:36:33 68° ESE 18:42:13 10° NNE
Cosmos 2221 Rocket 4.0 18:33:00 10° N 18:37:13 41° ENE 18:39:07 27° SE
FALCON 9 DEB 3.2 18:34:25 10° NW 18:37:33 54° NNE 18:38:14 43° ENE
USA 238 DEB 4.0 18:32:14 10° S 18:38:13 40° ESE 18:44:29 10° NE
USA 238 4.0 18:32:21 10° S 18:38:20 40° ESE 18:44:35 10° NE
Cosmos 1378 3.0 18:36:47 10° N 18:40:30 63° E 18:42:39 23° SSE
USA 308 3.7 18:38:36 10° NW 18:42:38 39° NNE 18:44:08 29° ENE
FALCON 9 DEB 2.8 18:43:12 10° WNW 18:46:23 69° NNE 18:46:43 61° ENE
Cosmos 2369 Rocket 4.3 18:49:03 10° NNE 18:49:51 10° NNE 18:50:39 10° NE
Cosmos 1821 Rocket 4.3 18:45:03 10° SSE 18:50:48 41° E 18:56:32 10° NNE
Cosmos 1066 Rocket 4.2 18:45:04 10° N 18:50:52 85° E 18:56:43 10° SSE
Cosmos 1727 Rocket 3.9 18:44:46 10° N 18:50:58 70° E 18:57:10 10° SSE
Cosmos 1743 3.8 18:55:45 29° NE 18:55:45 29° NE 18:57:59 10° NNE
Meteor 1-23 Rocket 4.1 18:50:48 10° N 18:56:25 74° ENE 19:01:05 16° SSE
Cosmos 2322 4.3 18:53:10 10° SW 18:58:48 58° WNW 19:04:27 10° NNE
Cosmos 2218 Rocket 4.2 18:52:34 10° SSW 18:58:59 77° W 19:05:24 10° N
Cosmos 1666 4.5 18:56:01 10° SW 18:59:24 32° WNW 19:02:49 10° N
SJ-6B 2.7 18:58:41 31° SSE 19:00:34 86° E 19:04:36 10° NNW
SJ 16-02 1.2 18:57:52 10° NNW 19:02:18 82° ENE 19:03:44 43° SSE
Resurs 01 Rocket 2.6 19:08:22 31° NE 19:08:22 31° NE 19:11:27 10° N
NOSS 3-2 (A) 3.2 19:02:00 10° SSW 19:07:33 71° SE 19:13:58 10° NE
NOSS 3-3 (A) 4.5 19:02:51 10° NW 19:10:21 80° NE 19:14:37 33° SE
NOSS 3-3 (C) 4.5 19:02:57 10° NW 19:10:27 80° NE 19:14:41 33° SE
Meteor 1-11 Rocket 4.2 19:05:19 10° SSW 19:10:56 63° WNW 19:16:29 10° N
Cosmos 1238 Rocket 3.0 19:08:55 10° SSW 19:13:06 67° W 19:16:36 10° N
Cosmos 1898 Rocket 3.7 19:09:27 10° NNW 19:14:33 50° ENE 19:14:51 50° ENE
Cosmos 2123 Rocket 4.4 19:08:51 10° N 19:14:42 40° ENE 19:14:53 40° ENE
FALCON 9 DEB 3.9 19:12:14 10° WNW 19:14:37 45° W 19:14:37 45° W
Meteor 2-20 Rocket 4.3 19:09:36 10° N 19:15:44 71° E 19:18:30 34° SSE
MOS 1 4.3 19:17:40 26° SSE 19:21:03 85° WSW 19:26:46 10° NNW
CENTAUR R/B 2.4 19:16:20 10° SSW 19:22:03 61° ESE 19:25:55 26° NE
FALCON 9 DEB 4.4 19:20:14 10° WNW 19:22:20 37° WNW 19:22:20 37° WNW
Resurs 1-3 3.4 19:24:39 84° ENE 19:24:39 84° ENE 19:29:02 10° NNW
Cosmos 1536 4.2 19:21:06 10° SW 19:24:50 38° WNW 19:28:36 10° N
SL-4 R/B 3.6 19:26:40 10° W 19:29:04 22° SW 19:29:04 22° SW
Cosmos 2237 Rocket 2.0 19:26:06 10° SSW 19:31:45 71° ESE 19:37:27 10° NNE
Cosmos 2278 Rocket 2.3 19:28:25 10° NNW 19:34:05 72° WSW 19:35:40 48° S
Cosmos 1943 Rocket 3.5 19:29:55 10° N 19:33:57 26° NE 19:33:57 26° NE
Lacrosse 4 Rocket 3.5 19:31:07 10° WSW 19:34:59 29° NW 19:38:55 10° NNE
Ariane Rocket 3.4 19:32:56 33° S 19:35:08 62° WSW 19:40:13 10° NNW
Cosmos 990 Rocket 3.8 19:33:03 10° NNW 19:38:16 89° WSW 19:38:26 85° S
ASTEX 1 4.3 19:33:53 10° N 19:38:35 48° WNW 19:43:16 10° SSW
Gbstr 26 Del rocket 3.4 19:37:52 10° WNW 19:42:48 84° NNE 19:42:49 84° NNE
OBJECT-B 3.2 19:46:16 23° WNW 19:46:16 23° WNW 19:48:12 10° NW
Cosmos 1733 Rocket 3.7 19:46:37 53° W 19:46:42 53° WNW 19:51:00 10° N
NOSS 3-2 (C) 3.2 19:43:01 10° SSW 19:48:09 74° S 19:48:09 74° S
Cosmos 2333 Rocket 4.0 19:45:10 10° WSW 19:50:08 30° NW 19:55:09 10° N
USA 81 4.4 19:50:00 30° SSW 19:52:33 61° W 19:57:46 10° N
SPOT 3 Rocket 3.7 19:55:22 73° NW 19:55:22 73° NW 20:00:10 10° NNW
USA 305 4.3 19:54:31 10° WNW 19:57:10 37° WNW 19:57:10 37° WNW
NOSS 0 Rocket 4.5 19:59:57 10° SW 20:05:58 56° WNW 20:12:03 10° NNE
SeaSat 1 4.4 20:02:08 10° N 20:06:15 27° NW 20:10:20 10° WSW
Cosmos 2219 Rocket 4.3 20:06:07 10° W 20:10:37 24° NW 20:15:10 10° N
Cosmos 1980 4.3 20:10:53 10° SW 20:16:22 53° WNW 20:21:55 10° NNE
USA 234 3.2 20:17:19 73° NNE 20:17:51 78° NNW 20:24:23 10° WSW
Cosmos 1937 Rocket 4.4 20:13:33 10° NNW 20:17:08 44° NW 20:17:08 44° NW
USA 238 DEB 4.3 20:22:35 10° WSW 20:29:00 52° NW 20:33:59 19° NNE
USA 238 4.3 20:22:41 10° WSW 20:29:07 52° NW 20:33:54 20° NNE
Cosmos 2369 Rocket 3.9 20:30:14 10° NNW 20:32:51 25° N 20:32:51 25° N
SJ 16-02 4.3 20:39:10 10° W 20:40:10 11° W 20:40:46 10° W
Resurs 01 Rocket 4.2 20:45:56 19° NW 20:45:56 19° NW 20:47:40 10° NW
CENTAUR R/B 3.8 21:07:21 10° W 21:13:08 38° NNW 21:19:58 10° NE
Cosmos 2237 Rocket 4.2 21:11:51 10° W 21:16:23 24° NW 21:20:56 10° N
Cosmos 1943 Rocket 4.2 21:13:17 10° NNW 21:15:30 24° NW 21:15:30 24° NW
